Back to catalog

STARLINK-30464

AliveCommunicationsVLEO
NORAD 57908·PAYLOAD·🇺🇸 United States

Launched Sep 20, 2023 from Cape Canaveral Space Force Station

Loading…

Next Passes (next 24 hours)

TLE

FreshSource: CelesTrak SupGP

Epoch: Sep 15, 2026, 02:44 UTC

1 57908C 23146T   26258.11437500  .00040603  00000+0  14709-2 0  2582
2 57908  43.0039 328.2308 0001991 262.6859  23.3943 15.27552472    19

Track STARLINK-30464 in real time with AllMySat

Download on the App Store